Asswan, Egypt

1:37 PM EET on February 24, 2017 (GMT +0200)
Aswan

Weather History for HESN - January, 2014

Change the Weather History Date:

Sunday, January 5, 2014

  Actual Average Record
Temperature  
Mean Temperature 60 °F -  
Max Temperature 69 °F 71 °F 87 °F (2006)
Min Temperature 50 °F 50 °F 37 °F (2002)
Degree Days  
Heating Degree Days 6    
Growing Degree Days 10 (Base 50)    
Moisture  
Dew Point 42 °F    
Average Humidity 53    
Maximum Humidity 76    
Minimum Humidity 35    
Precipitation  
Precipitation 0.00 in 0.00 in - ()
Sea Level Pressure  
Sea Level Pressure 30.04 in    
Wind  
Wind Speed 7 mph ()    
Max Wind Speed 13 mph    
Max Gust Speed -    
Visibility 4.1 miles    
Events      
Averages and records for this station are not official NWS values.
T = Trace of Precipitation, MM = Missing Value Source: Averaged Metar Reports

Daily Weather History Graph

Daily Weather History Graph

Search for Another Location

Airport or City:

Trip Planner

Search our weather history database for the weather conditions in past years. The results will help you decide how hot, cold, wet, or windy it might be!

Date:

Astronomy

Jan. 05, 2014 Rise Set
Actual Time 6:32 AM EET 5:15 PM EET
Civil Twilight 6:08 AM EET 5:40 PM EET
Nautical Twilight 5:40 AM EET 6:08 PM EET
Astronomical Twilight 5:12 AM EET 6:36 PM EET
Moon 9:33 AM EET (1/5) 9:46 PM EET (1/5)
Length of Visible Light 11h 32m
Length of Day
10h 42m
Waxing Crescent, 21% of the Moon is Illuminated
Jan 5
Waxing Crescent
Jan 8
First Quarter
Jan 16
Full
Jan 24
Last Quarter
Jan 30
New

Hourly Weather History & Observations

Time (EET) Temp. Dew Point Humidity Pressure Visibility Wind Dir Wind Speed Gust Speed Precip Events Conditions
12:00 AM 57.2 °F 41.0 °F 55% 30.04 in - NW 9.2 mph - N/A   Clear
1:00 AM 55.4 °F 42.8 °F 63% 30.04 in - NW 8.1 mph - N/A   Clear
2:00 AM 53.6 °F 42.8 °F 67% 30.01 in - NW 6.9 mph - N/A   Clear
3:00 AM 53.6 °F 42.8 °F 67% 30.04 in - NNW 3.5 mph - N/A   Clear
4:00 AM 53.6 °F 42.8 °F 67% 30.04 in - NW 5.8 mph - N/A   Clear
5:00 AM 51.8 °F 42.8 °F 71% 30.04 in - NNE 2.3 mph - N/A   Clear
6:00 AM 51.8 °F 44.6 °F 76% 30.06 in - NNW 4.6 mph - N/A   Clear
7:00 AM 50.0 °F 42.8 °F 76% 30.06 in - North 3.5 mph - N/A   Clear
8:00 AM 53.6 °F 44.6 °F 72% 30.06 in - North 3.5 mph - N/A   Clear
9:00 AM 59.0 °F 46.4 °F 63% 30.09 in - NNW 6.9 mph - N/A   Clear
10:00 AM 62.6 °F 44.6 °F 52% 30.06 in - North 12.7 mph - N/A   Clear
11:00 AM 64.4 °F 44.6 °F 49% 30.06 in 3.7 mi NNW 12.7 mph - N/A   Unknown
12:00 PM 66.2 °F 42.8 °F 43% 30.04 in 3.7 mi NNW 12.7 mph - N/A   Unknown
1:00 PM 68.0 °F 42.8 °F 40% 30.01 in 3.7 mi NNW 12.7 mph - N/A   Unknown
2:00 PM 69.8 °F 41.0 °F 35% 30.01 in 3.7 mi NNW 12.7 mph - N/A   Unknown
3:00 PM 69.8 °F 41.0 °F 35% 30.01 in 5.0 mi NNW 11.5 mph - N/A   Unknown
4:00 PM 69.8 °F 41.0 °F 35% 30.01 in 5.0 mi NNW 10.4 mph - N/A   Unknown
5:00 PM 68.0 °F 41.0 °F 37% 30.01 in - NNW 11.5 mph - N/A   Clear
6:00 PM 64.4 °F 41.0 °F 42% 30.04 in - North 10.4 mph - N/A   Clear
7:00 PM 62.6 °F 37.4 °F 39% 30.06 in - NNW 6.9 mph - N/A   Clear
8:00 PM 62.6 °F 37.4 °F 39% 30.06 in - NNW 9.2 mph - N/A   Clear
9:00 PM 59.0 °F 35.6 °F 42% 30.06 in - NNW 8.1 mph - N/A   Clear
10:00 PM 57.2 °F 39.2 °F 51% 30.09 in - NW 9.2 mph - N/A   Clear
11:00 PM 55.4 °F 41.0 °F 58% 30.06 in - NW 5.8 mph - N/A   Clear